Probability
10 8 6 6 3 1 0 0 0 0 0 0 0 0 0 0 0 0 0 0 0 0 0 0 0 0 0 0 0 0 0 0 0 0 0 0 0 0
12 9 5 4 3 1 0 0 0 0 0 0 0 0 0 0 0 0 0 0 0 0 0 0 0 0 0 0 0 0 0 0 0 0 0 0 0 0
7 5 2 1 2 2 0 0 0 0 0 0 0 0 0 0 0 0 0 0 0 0 0 0 0 0 0 0 0 0 0 0 0 0 0 0 0 0
1 0 0 1 1 1 0 0 0 0 0 0 0 1 1 1 1 0 0 0 0 0 0 0 0 0 0 0 0 0 0 0 0 0 0 0 0 0
0 0 0 0 0 0 0 0 0 0 0 0 1 1 1 1 1 0 0 1 1 0 0 0 0 0 0 0 0 0 0 0 0 0 0 0 0 0
0 0 0 0 0 0 0 0 0 0 0 0 1 0 0 1 1 0 0 1 1 0 0 0 0 0 0 0 0 0 0 0 0 0 0 0 0 0
0 0 0 0 0 0 0 0 0 0 0 0 0 0 0 0 0 0 0 1 1 0 0 0 0 0 0 0 0 0 0 0 0 0 0 0 0 0
0 0 0 0 0 0 0 0 0 0 0 0 0 0 0 0 0 0 0 0 0 0 0 0 0 0 0 0 0 0 0 0 0 0 0 0 0 0
0 0 0 0 0 0 0 0 0 0 0 0 0 0 0 0 0 0 0 0 0 0 0 0 0 0 0 0 0 0 0 0 0 0 0 0 0 0
0 0 0 0 0 0 0 0 0 0 0 0 0 0 0 0 0 0 0 0 0 0 0 0 0 0 0 0 0 0 0 0 0 0 0 0 0 0
0 0 0 0 0 0 0 0 0 0 0 0 0 0 0 0 0 0 0 0 0 0 0 0 0 0 0 0 0 0 0 0 0 0 0 0 0 0
0 0 0 0 0 0 0 0 0 0 0 0 0 0 0 0 0 0 0 0 0 0 0 0 0 0 0 0 0 0 0 0 0 0 0 0 0 0
0 0 0 0 0 0 0 0 0 0 0 0 0 0 0 0 0 0 0 0 0 0 0 0 0 0 0 0 0 0 0 0 0 0 0 0 0 0
0 0 0 0 0 0 0 0 0 0 0 0 0 0 0 0 0 0 0 0 0 0 0 0 0 0 0 0 0 0 0 0 0 0 0 0 0 0
0 0 0 0 0 0 0 0 0 0 0 0 0 0 0 0 0 0 0 0 0 0 0 0 0 0 0 0 0 0 0 0 0 0 0 0 0 0
0 0 0 0 0 0 0 0 0 0 0 0 0 0 0 0 0 0 0 0 0 0 0 0 0 0 0 0 0 0 0 0 0 0 0 0 0 0
0 0 0 0 0 0 0 0 0 0 0 0 0 0 0 0 0 0 0 0 0 0 0 0 0 0 0 0 0 0 0 0 0 0 0 0 0 0
0 0 0 0 0 0 0 0 0 0 0 0 0 0 0 0 0 0 0 0 0 0 0 0 0 0 0 0 0 0 0 0 0 0 0 0 0 0
0 0 0 0 0 0 0 0 0 0 0 0 0 0 0 0 0 0 0 0 0 0 0 0 0 0 0 0 0 0 0 0 0 0 0 0 0 0
0 0 0 0 0 0 0 0 0 0 0 0 0 0 0 0 0 0 0 0 0 0 0 0 0 0 0 0 0 0 0 0 0 0 0 0 0 0
0 0 0 0 0 0 0 0 0 0 0 0 0 0 0 0 0 0 0 0 0 0 0 0 0 0 0 0 0 0 0 0 0 0 0 0 0 0
0 0 0 0 0 0 0 0 0 0 0 0 0 0 0 0 0 0 0 0 0 0 0 0 0 0 0 0 0 0 0 0 0 0 0 0 0 0
0 0 0 0 0 0 0 0 0 0 0 0 0 0 0 0 0 0 0 0 0 0 0 0 0 0 0 0 0 0 0 0 0 0 0 0 0 0
Wind_Speed
3 3 2 1 2 2 3 4 6 7 7 3 3 4 4 5 3 5 5 3 5 6 6 8 9 11 12 13 15 16 17 17 19 23 27 29 30 29
1 2 1 1 2 2 3 3 4 5 7 6 5 6 7 6 3 5 5 4 7 6 6 7 8 10 11 12 13 14 16 17 19 23 26 27 27 26
3 3 3 4 3 3 3 3 4 5 7 7 6 6 7 7 5 5 5 5 4 5 5 6 8 9 10 11 10 11 14 16 20 24 27 27 26 25
5 5 4 3 3 4 4 4 4 4 6 8 7 6 7 7 6 5 4 4 4 4 3 5 7 8 8 8 7 8 11 16 20 24 26 26 26 24
6 6 6 5 5 5 5 6 5 4 4 6 6 5 6 7 7 5 4 4 5 4 5 4 3 5 6 6 4 4 9 15 19 22 24 24 23 22
7 7 7 7 7 6 5 6 6 6 4 5 5 6 6 8 7 7 6 4 4 3 2 1 1 2 3 4 3 1 6 12 16 19 21 21 20 19
8 8 8 7 7 7 7 8 8 7 6 6 6 7 8 9 8 7 7 6 3 2 2 2 1 2 0 1 3 4 5 9 14 17 18 18 17 16
7 6 7 6 4 3 3 5 7 8 9 8 7 8 9 9 8 8 8 7 4 3 3 2 1 1 1 0 4 5 5 7 9 12 14 15 14 13
6 5 5 7 7 6 1 5 3 3 4 7 8 9 10 10 11 10 8 7 5 4 2 1 1 1 1 2 7 6 6 6 7 9 10 11 11 11
6 6 5 7 8 9 6 6 5 6 6 7 7 8 8 9 10 10 8 5 1 2 2 2 1 1 1 2 5 6 6 6 6 7 8 9 10 10
5 6 6 6 8 10 6 6 6 5 3 2 2 6 8 8 9 9 9 8 6 3 3 2 2 1 1 2 4 7 7 8 8 8 9 9 10 9
4 6 9 7 7 10 6 6 7 7 7 5 2 3 5 4 4 8 9 9 7 5 5 4 2 1 1 1 2 3 5 7 9 10 11 11 11 10
2 3 7 6 6 6 6 6 6 8 7 6 5 6 6 7 8 8 8 8 8 6 6 5 4 2 1 1 2 3 4 4 6 7 10 12 14 13
2 4 6 4 3 4 4 5 9 10 5 6 6 7 7 8 8 9 8 7 5 6 6 6 4 3 3 2 1 1 3 4 4 5 6 9 12 14
4 6 3 1 4 3 2 5 7 5 6 6 7 7 7 7 8 7 7 6 5 4 5 6 6 5 3 3 2 1 1 2 4 4 5 6 7 7
4 5 5 4 3 0 2 2 3 5 6 6 7 7 7 7 7 8 8 8 6 5 5 7 6 6 4 3 2 2 1 0 1 2 3 3 4 5
2 4 4 3 2 1 2 3 4 5 5 6 6 7 7 7 7 7 7 8 7 7 7 7 7 5 4 4 3 3 3 2 1 1 1 2 2 2
4 2 2 1 2 2 3 3 3 5 6 6 6 7 8 8 8 7 8 8 8 8 8 8 8 6 3 3 7 6 4 3 2 1 1 0 1 1
5 2 1 1 1 1 2 3 4 4 4 6 6 7 7 7 7 7 8 8 8 7 7 7 8 8 7 5 4 6 7 4 3 2 1 1 0 1
5 2 2 1 0 1 2 3 3 3 4 5 5 6 7 7 7 8 7 9 9 8 8 7 8 9 8 7 6 4 6 7 5 4 3 1 0 2
6 4 3 2 2 1 1 2 2 2 3 4 4 5 6 6 6 7 7 6 7 7 8 7 7 7 7 5 5 4 3 3 4 4 5 4 2 2
6 6 5 4 3 3 2 3 3 2 2 3 3 4 5 5 6 7 7 7 7 7 8 7 7 7 6 6 6 6 5 4 1 1 2 3 4 3
8 7 6 6 6 4 4 4 4 3 2 3 3 3 4 5 5 6 6 6 7 8 8 7 7 7 7 7 7 6 7 6 4 3 1 1 2 4
Wind_Direction
199 199 256 334 305 317 306 307 310 313 320 332 322 327 321 318 314 282 274 202 239 260 273 282 287 288 282 273 257 244 234 223 208 194 186 184 185 186
119 73 6 2 351 330 325 318 304 303 305 321 319 326 332 313 296 287 274 207 233 250 274 288 297 299 293 282 264 242 224 210 196 184 179 179 180 182
107 89 62 28 9 349 346 336 332 323 308 318 328 330 321 315 314 291 267 246 225 218 269 298 308 308 305 295 273 241 213 197 184 177 175 174 175 179
86 77 66 64 44 14 353 357 353 336 316 321 325 333 335 332 323 300 278 256 253 188 245 295 312 314 316 309 286 239 203 183 175 171 170 171 174 177
85 78 69 59 42 36 10 7 352 347 334 321 333 349 348 351 339 324 300 278 263 204 215 245 306 323 331 336 320 241 191 175 167 165 166 168 170 172
83 74 62 53 39 21 19 10 357 339 344 338 356 4 6 1 353 344 333 315 290 267 247 288 307 314 354 8 14 83 160 161 159 158 159 161 163 167
93 83 70 60 42 16 14 9 1 351 357 360 9 12 14 3 359 342 335 327 314 307 272 244 245 289 309 78 59 77 122 145 150 152 153 155 159 165
97 94 99 75 79 101 60 32 16 7 4 357 12 10 7 2 350 342 345 341 338 339 299 279 254 276 295 326 115 112 120 132 141 147 152 157 163 171
89 68 55 56 21 23 94 181 123 81 353 335 7 1 358 359 340 341 350 343 346 351 330 311 291 268 285 77 131 144 147 148 150 154 158 164 171 179
86 68 54 47 28 355 3 24 30 42 20 10 8 358 2 347 333 325 327 325 12 38 8 339 316 249 207 156 159 172 175 176 176 175 176 181 186 192
82 58 36 52 25 345 1 23 21 22 139 163 286 296 290 293 318 335 345 338 350 23 25 350 338 308 216 192 176 188 194 197 199 200 201 202 201 204
125 118 74 41 20 357 9 22 16 3 350 354 319 310 321 331 317 348 347 342 343 357 23 348 351 359 336 232 188 186 201 206 208 209 212 213 206 215
110 96 81 47 28 7 354 24 354 312 317 338 350 359 359 357 359 4 357 344 344 346 356 346 344 349 319 283 209 201 203 204 207 213 214 214 209 214
53 70 83 53 25 7 18 0 313 301 332 357 359 1 358 357 356 351 348 343 337 333 340 340 328 332 321 313 287 206 202 204 208 217 216 206 211 218
71 67 67 234 239 179 106 306 309 347 358 355 358 356 351 352 337 337 338 334 321 329 355 349 333 327 319 319 319 290 221 200 201 214 214 205 204 203
146 148 190 227 241 57 225 279 4 22 351 352 351 347 343 344 347 349 344 340 339 353 4 353 345 336 334 343 338 351 351 345 210 212 201 201 206 210
181 181 179 170 168 84 46 29 6 10 358 358 350 346 345 346 350 352 345 339 346 351 355 353 349 346 8 3 1 13 17 13 1 345 222 183 176 192
271 165 127 84 40 33 11 12 21 19 358 351 354 350 347 347 348 349 349 349 351 354 356 355 350 343 331 55 21 8 14 14 352 340 315 217 161 151
240 167 133 89 43 21 7 2 8 26 351 347 358 354 348 345 348 348 352 351 350 349 352 356 359 354 347 347 21 19 1 353 346 348 349 337 252 139
231 193 183 179 222 328 348 352 349 358 359 348 356 353 347 344 347 348 353 357 344 340 344 356 6 356 343 333 328 352 9 353 351 351 343 332 98 137
216 215 218 218 234 245 284 298 313 337 353 327 349 349 342 340 347 343 344 354 330 338 344 350 358 320 307 318 323 345 14 30 3 348 341 328 299 226
230 229 228 233 235 240 250 268 280 282 294 306 343 337 340 340 341 338 343 343 345 348 344 338 338 331 333 338 341 344 347 353 42 93 41 2 340 334
231 235 232 227 225 223 235 241 257 275 282 304 318 329 340 342 337 339 342 346 349 348 339 341 347 346 345 343 345 349 353 349 341 336 3 27 310 283